Location: Newark
(35.6799°N, 139.7636°E)
Time: 22:38:07
(UTC+00:00)

Explorer 7 - Pass Details

Date: 10 December 2019
Orbit: 485 x 679 km, 50.3° (Epoch: 18 January)

Event Time Altitude Azimuth Distance (km) Brightness Sun altitude
Rises 05:07:15 0° 204° (SSW) 2,914 11.9 21.1°
Reaches altitude 10° 05:09:42 10° 194° (SSW) 2,037 11.1 20.8°
Maximum altitude 05:13:54 33° 131° (SE) 1,122 8.6 20.2°
Drops below altitude 10° 05:18:15 10° 68° (ENE) 2,107 9.3 19.7°
Sets 05:20:49 0° 59° (ENE) 3,032 10.0 19.3°
